EW7157 Weather Reports


time (UTC)temp
C
wind
direction
speed
KPH
gust
KPH
rain 1hr
cm
rain 24hr
cm
rain mn
cm
humidity
%
barometer
mb
20260901080628 21 67 0.0 0.0 0.00 0.03 0.00 95 1038.6
20260901074630 21 67 0.0 0.0 0.00 0.03 0.00 95 1038.8
20260901073629 21 67 0.0 0.0 0.00 0.03 0.00 95 1038.7
20260901073527 21 67 0.0 0.0 0.00 0.03 0.00 94 1038.6
20260901072529 21 67 0.0 0.0 0.00 0.03 0.00 95 1038.7
20260901071529 21 67 0.0 0.0 0.00 0.03 0.00 95 1038.8
20260901071430 21 67 0.0 0.0 0.00 0.03 0.00 95 1038.8
20260901070445 21 67 0.0 0.0 0.00 0.03 0.00 95 1038.9
20260901065530 21 67 0.0 0.0 0.00 0.03 0.00 93 1038.9
20260901065446 21 67 0.0 0.0 0.00 0.03 0.00 94 1039.0
20260901064431 21 67 0.0 0.0 0.00 0.03 0.00 93 1039.2
20260901063427 21 67 0.0 0.0 0.00 0.03 0.00 93 1039.2
20260901062428 21 67 0.0 0.0 0.00 0.03 0.00 93 1039.3
20260901061428 21 67 0.0 0.0 0.00 0.03 0.00 94 1039.4
20260901061329 21 67 0.0 0.0 0.00 0.03 0.00 94 1039.4
20260901054330 21 67 0.0 0.0 0.00 0.03 0.00 94 1039.5
20260901053230 21 67 0.0 0.0 0.00 0.03 0.00 94 1039.5
20260901052327 21 67 0.0 0.0 0.00 0.03 0.00 93 1039.5
20260901051329 21 67 0.0 0.0 0.00 0.03 0.00 93 1039.6
20260901045446 21 67 0.0 0.0 0.00 0.03 0.00 92 1039.7
20260901044528 21 67 0.0 0.0 0.00 0.03 0.00 93 1039.8
20260901043531 21 67 0.0 0.0 0.00 0.03 0.00 93 1040.2
20260901042628 21 67 0.0 0.0 0.00 0.03 0.00 93 1040.2
20260901042529 21 67 0.0 0.0 0.00 0.03 0.00 93 1040.2
20260901041529 21 67 0.0 0.0 0.00 0.05 0.00 93 1040.3
20260901040628 21 67 0.0 0.0 0.00 0.08 0.00 93 1040.4
20260901035714 20 67 0.0 0.0 0.00 0.08 0.08 93 1040.3
20260901034713 20 67 0.0 0.0 0.00 0.08 0.08 93 1040.4
20260901033714 20 67 0.0 0.0 0.00 0.08 0.08 93 1040.3
20260901032714 20 67 0.0 0.0 0.00 0.08 0.08 93 1040.4
20260901032613 20 67 0.0 0.0 0.00 0.08 0.08 93 1040.5
20260901030614 20 67 0.0 0.0 0.00 0.10 0.08 92 1040.7
20260901025616 20 67 0.0 0.0 0.00 0.10 0.08 91 1040.5
20260901024614 20 67 0.0 0.0 0.00 0.10 0.08 92 1040.5
20260901023612 20 67 0.0 0.0 0.00 0.53 0.08 91 1040.6
20260901022616 20 67 0.0 0.0 0.00 1.37 0.08 91 1040.7
20260901021712 20 67 0.0 0.0 0.00 1.45 0.08 90 1040.7
20260901020715 20 67 0.0 0.0 0.00 1.50 0.08 90 1040.6
20260901015715 20 67 0.0 0.0 0.00 1.50 0.08 90 1040.6
20260901013713 20 67 0.0 0.0 0.00 1.50 0.08 90 1040.6
20260901012716 20 67 0.0 0.0 0.00 1.50 0.08 88 1040.7
20260901010714 21 67 0.0 0.0 0.00 1.50 0.08 88 1040.5
20260901004716 21 67 0.0 0.0 0.00 1.50 0.08 88 1040.5
20260901003716 21 67 0.0 0.0 0.00 1.50 0.08 88 1040.5
20260901003615 21 67 0.0 0.0 0.00 1.50 0.08 88 1040.5
20260901002614 21 67 0.0 0.0 0.00 1.50 0.08 87 1040.3
20260901001714 21 67 0.0 0.0 0.00 1.50 0.08 86 1040.3
20260901001613 21 67 0.0 0.0 0.00 1.50 0.08 85 1040.3
20260901000613 21 67 0.0 0.0 0.00 1.50 0.08 86 1040.2
20260831235615 22 67 0.0 0.0 0.00 1.50 0.08 86 1040.0
20260831235513 22 67 0.0 0.0 0.00 1.50 0.08 85 1040.0
20260831234513 22 67 0.0 0.0 0.00 1.50 0.08 85 1040.1
20260831233514 22 67 0.0 0.0 0.00 1.50 0.08 86 1040.0
20260831230515 22 67 0.0 0.0 0.00 1.50 0.08 85 1040.3
20260831224516 23 67 0.0 0.0 0.00 1.50 0.08 85 1040.7
20260831223614 23 67 0.0 0.0 0.00 1.50 0.08 85 1040.7
20260831222614 23 67 0.0 0.0 0.00 1.50 0.08 83 1040.7
20260831221714 23 67 0.0 0.0 0.00 1.50 0.08 84 1040.7
20260831220616 23 67 0.0 0.0 0.00 1.50 0.08 84 1040.8
20260831215712 23 67 0.0 0.0 0.00 1.50 0.08 83 1041.0
20260831214714 23 67 0.0 0.0 0.00 1.50 0.08 84 1040.8
20260831214613 23 67 0.0 0.0 0.00 1.50 0.08 84 1040.8
20260831213614 23 67 0.0 0.0 0.00 1.50 0.08 84 1040.9
20260831212614 23 67 0.0 0.0 0.00 1.50 0.08 83 1040.9
20260831212515 23 67 0.0 0.0 0.00 1.50 0.08 83 1040.9
20260831211513 23 67 0.0 0.0 0.00 1.50 0.08 83 1041.1
20260831210515 23 67 0.0 0.0 0.00 1.50 0.08 83 1041.0
20260831204513 23 67 0.0 0.0 0.00 1.50 0.08 82 1041.2
20260831204415 23 67 0.0 0.0 0.00 1.50 0.08 82 1041.2
20260831203413 24 67 0.0 0.0 0.00 1.50 0.08 80 1041.1
20260831202413 25 67 0.0 0.0 0.00 1.50 0.08 78 1041.3
20260831201417 25 67 0.0 0.0 0.00 1.50 0.08 77 1041.4
20260831200313 25 67 0.0 0.0 0.00 1.50 0.08 76 1041.4
20260831195313 25 67 0.0 0.0 0.00 1.50 0.08 77 1041.4
20260831194315 25 67 0.0 0.0 0.00 1.50 0.08 76 1041.6
20260831193413 25 67 0.0 0.0 0.00 1.50 0.08 76 1041.7
20260831192414 25 67 0.0 0.0 0.00 1.50 0.08 75 1041.6
20260831192314 25 67 0.0 0.0 0.00 1.50 0.08 74 1041.6
20260831191314 25 67 0.0 0.0 0.00 1.50 0.08 74 1041.8
20260831190314 26 67 0.0 0.0 0.00 1.50 0.08 73 1041.7
20260831184314 26 67 0.0 0.0 0.00 1.50 0.08 71 1042.0
20260831183314 26 67 0.0 0.0 0.00 1.50 0.08 69 1042.1
20260831182313 26 67 0.0 0.0 0.00 1.50 0.08 69 1041.9
20260831182213 26 67 0.0 0.0 0.00 1.50 0.08 69 1041.9
20260831181214 26 67 0.0 0.0 0.00 1.50 0.08 72 1042.1
20260831180215 26 67 0.0 0.0 0.00 1.50 0.08 70 1042.0
20260831175213 27 67 0.0 0.0 0.00 1.50 0.08 69 1042.2
20260831175115 27 67 0.0 0.0 0.00 1.50 0.08 68 1042.3
20260831174117 27 67 0.0 0.0 0.00 1.50 0.08 63 1042.1
20260831173214 27 67 0.0 0.0 0.00 1.50 0.08 60 1042.1
20260831173112 27 67 0.0 0.0 0.00 1.50 0.08 60 1042.1
20260831173014 27 67 0.0 0.0 0.00 1.50 0.08 60 1042.2
20260831171112 27 138 0.0 0.0 0.00 1.50 0.08 63 1042.1
20260831170113 26 157 0.0 0.0 0.00 1.50 0.08 66 1042.1
20260831165113 26 157 0.0 0.0 0.00 1.50 0.08 64 1042.3
20260831164016 26 157 0.0 0.0 0.00 1.50 0.08 65 1042.4
20260831163013 26 202 0.0 0.0 0.00 1.50 0.08 69 1042.2
20260831162013 25 315 0.0 0.0 0.03 1.50 0.08 74 1042.4
20260831161014 25 360 0.0 0.0 0.03 1.50 0.08 76 1042.5
20260831160012 23 270 0.0 0.0 0.03 1.50 0.08 79 1042.5
20260831155015 23 270 0.0 0.0 0.03 1.50 0.08 83 1042.5
20260831154916 23 270 0.0 0.0 0.03 1.50 0.08 84 1042.5
20260831153015 22 270 0.0 0.0 0.03 1.50 0.08 92 1042.6
20260831152030 22 270 0.0 0.0 0.00 1.45 0.05 91 1042.6
20260831151115 22 225 0.0 0.0 0.00 1.45 0.05 91 1042.7
20260831145312 21 225 0.0 0.0 0.00 1.45 0.05 94 1042.8
20260831144312 21 225 0.0 0.0 0.00 1.45 0.05 95 1043.0
20260831143313 21 225 0.0 0.0 0.00 1.45 0.05 95 1043.0
20260831142313 21 225 0.0 0.0 0.00 1.45 0.05 94 1042.8
20260831140315 21 225 0.0 0.0 0.00 1.45 0.05 94 1042.8
20260831135412 21 157 0.0 0.0 0.00 1.45 0.05 95 1042.7
20260831135315 21 157 0.0 0.0 0.00 1.45 0.05 94 1042.6
20260831133316 21 157 0.0 0.0 0.00 1.45 0.05 95 1042.9
20260831132414 21 157 0.0 0.0 0.00 1.45 0.05 95 1042.8
20260831131514 21 157 0.0 0.0 0.00 1.45 0.05 94 1042.6
20260831130516 21 157 0.0 0.0 0.00 1.45 0.05 96 1042.9
20260831125614 21 135 0.0 0.0 0.00 1.45 0.05 96 1042.8
20260831124613 20 135 0.0 0.0 0.00 1.45 0.05 96 1042.9
20260831124517 20 135 0.0 0.0 0.00 1.45 0.05 96 1042.9
20260831123515 20 135 0.0 0.0 0.00 1.45 0.05 96 1042.8
20260831122515 20 135 0.0 0.0 0.00 1.45 0.05 95 1042.8
20260831122416 20 135 0.0 0.0 0.00 1.45 0.05 96 1042.7
20260831121513 20 135 0.0 0.0 0.00 1.45 0.05 96 1042.5
20260831120514 20 135 0.0 0.0 0.00 1.45 0.05 96 1042.5
20260831115514 19 135 0.0 0.0 0.00 1.45 0.05 96 1042.6
20260831114415 19 135 0.0 0.0 0.00 1.45 0.05 96 1042.4
20260831113414 19 135 0.0 0.0 0.00 1.45 0.05 96 1042.3
20260831112425 19 135 0.0 0.0 0.00 1.45 0.05 96 1042.3
20260831111413 19 135 0.0 0.0 0.00 1.45 0.05 96 1042.2
20260831110415 19 135 0.0 0.0 0.00 1.45 0.05 95 1042.0
20260831110314 19 135 0.0 0.0 0.00 1.45 0.05 96 1042.0
20260831110215 19 135 0.0 0.0 0.00 1.45 0.05 96 1041.9
20260831105215 19 135 0.0 0.0 0.00 1.45 0.05 96 1042.0
20260831104313 19 135 0.0 0.0 0.00 1.45 0.05 95 1042.2
20260831104214 19 135 0.0 0.0 0.00 1.45 0.05 96 1042.2
20260831103114 19 135 0.0 0.0 0.00 1.45 0.05 96 1041.9
20260831101214 19 135 0.0 0.0 0.00 1.45 0.05 96 1041.9
20260831100312 19 135 0.0 0.0 0.00 1.45 0.05 96 1041.7
20260831100216 19 135 0.0 0.0 0.00 1.45 0.05 96 1041.7
20260831100115 19 135 0.0 0.0 0.00 1.45 0.05 96 1041.6
20260831094312 19 135 0.0 0.0 0.00 1.45 0.05 96 1041.4
20260831093315 19 135 0.0 0.0 0.00 1.45 0.05 96 1041.3
20260831092315 20 135 0.0 0.0 0.00 1.45 0.05 96 1041.2
20260831091314 20 135 0.0 0.0 0.00 1.45 0.05 96 1041.2
20260831090313 20 135 0.0 0.0 0.00 1.45 0.05 95 1041.4
20260831085316 20 135 0.0 0.0 0.00 1.45 0.05 95 1041.4
20260831084412 20 135 0.0 0.0 0.00 1.45 0.05 95 1041.2
20260831083430 20 135 0.0 0.0 0.00 1.45 0.05 95 1041.3
20260831082515 20 135 0.0 0.0 0.00 1.45 0.05 95 1041.5
20260831081614 20 135 0.0 0.0 0.00 1.45 0.05 95 1041.4